Weather in Kabanovo

Russia / Republic of Mordovia     54°38′24″N   43°44′10″E
temp.,
°C
wind,
m/s
gust,
m/s
humid.,
%
clouds,
%
prec.,
mm/h
press.,
hPa
HPBL,
m
3 march, wed
wed300:00−4wnw389675 0.1 1005230
03:00−3nw5109379 0.1 1006554
06:00−4nnw61088100 0.1 1007752
09:00−6nw6109099 0.1 1009634
12:00−4nw6988100 0.1 1010682
15:00−4nw6986100 0.1 1011894
18:00−6wnw398994 0.1 1010197
21:00−6wsw389777 0.1 1010241
4 march, thu
thu400:00−3wsw5129599 0.1 1008677
03:00−2wsw6129299 0.4 1006801
06:00−3wsw71395100 0.4 1002784
09:00−1wsw81596100 2.1 999932
12:000w81497100 0.8 9981076
15:000wnw71296100 1.3 999965
18:00−2w41085100 0.1 1000320
21:00−3wsw2593100 0.1 1001141
5 march, fri
fri500:00−4w1297100 0.1 100023
03:00−4n2497100 1.3 999165
06:00−6nnw2596100 0.6 1001177
09:00−5n3693100 0.7 1003353
12:00−4n238479 0.0 1006654
15:00−3nw238175 0.0 1008714
18:00−7wsw129078 0.0 100921
21:00−9sw239078 0.0 101121
6 march, sat
sat600:00−8sw389796 0.2 1011213
03:00−8w499598 0.3 1012327
06:00−13wnw379798 0.1 1012153
09:00−11nw369378 0.1 1013234
12:00−7nw358887 0.1 1014709
15:00−7nw468593 0.3 1014869
18:00−12nw359292 0.1 1014106
21:00−16wnw339465 0.1 101540
7 march, sun
sun700:00−17w33960 0.0 101541
03:00−17wsw339833 0.0 101476
06:00−18ssw389626 0.0 1012145
09:00−12ssw6138754 0.0 1009538
12:00−7ssw91491100 0.1 10041060
15:00−5sw91793100 1.2 9991352
18:00−5sw81594100 1.6 9951144
21:00−4wnw5891100 3.1 994489